{"data":{"norad_id":40015,"epoch":"2026-09-20T03:54:06.024672Z","epoch_age_seconds":43613,"freshness":"FRESH","line1":"1 40015U 14033F   26263.16256973  .00000679  00000+0  83823-4 0  9998","line2":"2 40015  97.6535  62.4585 0033708  43.6589 316.7284 14.85565093661722","mean_motion":14.85565093,"eccentricity":0.0033708,"inclination_deg":97.6535,"raan_deg":62.4585,"arg_perigee_deg":43.6589,"mean_anomaly_deg":316.7284,"bstar":8.3823e-5,"rev_number":66172,"period_min":96.932810738843,"perigee_km":588.25097880659,"apogee_km":635.37442371261,"semimajor_km":6989.9497012596,"source":"CELESTRAK","updated_at":"2026-09-20T09:00:33.897506Z"}}